Overview Statistics Trail Chart Weather Telemetry Raw packets
 

This is the latest recevied weather packets stored in our database for station/object EA8EE-7. If no packets are shown the sender has not sent any weather packets the latest 10 day(s).

<< 11 12 13 14 15 16 17 >>
Time Temp. Humidity Pressure Rain* Wind** Luminosity Snow
1788459319 35° C 35% 1026 hPa - - - -
1788458719 35° C 35% 1027.2 hPa - - - -
1788458633 35° C 35% 1026.1 hPa - - - -
1788458119 35° C 35% 1026.1 hPa - - - -
1788457519 35° C 35% 1027 hPa - - - -
1788456919 35° C 34% 1027.2 hPa - - - -
1788456319 35° C 34% 1024.8 hPa - - - -
1788455419 35.56° C 34% 1026.2 hPa - - - -
1788454264 36.67° C 32% 1022.6 hPa - - - -
1788453070 36.67° C 32% 1023.5 hPa - - - -
1788452470 36.67° C 32% 1023.4 hPa - - - -
1788451870 36.67° C 32% 1024.5 hPa - - - -
1788451270 36.67° C 32% 1023.6 hPa - - - -
1788450318 37.22° C 32% 1022.6 hPa - - - -
1788449718 37.22° C 32% 1023.8 hPa - - - -
1788449118 37.22° C 32% 1023.6 hPa - - - -
1788448232 37.22° C 32% 978.3 hPa - - - -
1788447319 38.33° C 32% 1025.3 hPa - - - -
1788446397 38.33° C 31% 933.2 hPa - - - -
1788445797 37.78° C 32% 942.3 hPa - - - -
1788445197 37.78° C 32% 946.8 hPa - - - -
1788444597 37.78° C 32% 986.3 hPa - - - -
1788443421 36.67° C 32% 1021.4 hPa - - - -
1788442821 36.67° C 32% 1024.3 hPa - - - -
1788441619 37.22° C 32% 1023.9 hPa - - - -

* Rain since midnight (hover to see other rain measurements)
** Current wind speed in m/s (hover to see current wind gust speed)